Simultaneous Nadir Overpasses (SNOs) Predictions

Prediction of SNOs between AQUA and GOES-15 Satellite Orbit:

Table of predicted SNOs for the next 14.0 days since TLE Epoch: 11/4/2016
Index Date Time (AQUA) AQUA Lat,Lon GOES-15 Lat,Lon Distance(km) Time Diff (sec)
1 11/04/2016 22:46:46 -0.74,-137.81 -0.09,-134.89 332.67 80
2 11/06/2016 22:34:35 -0.10,-134.86 -0.09,-134.96 11.13 80
3 11/08/2016 22:22:24 0.55,-131.91 -0.09,-135.02 353.56 80
4 11/09/2016 10:43:40 0.49,-137.07 0.07,-135.09 225.64 80
5 11/11/2016 10:31:29 -0.16,-134.12 0.07,-135.14 116.50 80
6 11/11/2016 22:52:52 -0.97,-139.30 -0.05,-135.10 479.08 80
7 11/13/2016 10:19:17 -0.76,-131.15 0.08,-135.19 458.04 80
8 11/13/2016 22:40:42 -0.30,-136.35 -0.06,-135.14 137.65 80
9 11/15/2016 22:28:30 0.31,-133.39 -0.06,-135.18 202.99 80
10 11/16/2016 10:49:45 0.74,-138.56 0.04,-135.24 376.67 80




NCC Satellite Simultaneous Nadir Overpasses (SNOs) Prediction Service
